sat.trackr.live / text

‹ back to catalog

STARLINK-32759

NORAD 62751 · 2025-014S

PAYLOAD ACTIVE UNKNOWN

§ Identity

Operator
Country
US
Launch date
2025-01-21
Launch site
AFETR
Launch vehicle
Mass (kg)
RCS (m²)

Purposes: comms

External: N2YO · Heavens-Above · Gunter

§ Orbital elements

Epoch: 2026-09-20T22:17:20.376384Z

Period
94.27 min
Inclination
43.0003°
Eccentricity
0.0003024
Mean motion
15.27589113 rev/d
Perigee alt
480.9 km
Apogee alt
485.1 km
Semi-major
6,861.2 km
B*
4.2671e-4
RAAN
135.5013°
Arg perigee
275.7916°
Mean anomaly
84.2591°
Rev number
9,307

§ Raw data

STARLINK-327591 62751U 25014S   26263.92870806  .00011502  00000+0  42671-3 0  99932 62751  43.0003 135.5013 0003024 275.7916  84.2591 15.27589113 93077

JSON: /api/v1/satellites/62751 · /tle

For live sub-satellite position, see the globe view (requires WebGL).

§ Visibility from observer

Set your observer location to see the next 7 days of passes ≥ 10°. The values pass through the URL so the page stays shareable.

No JS? Fill the form by hand. The geolocation button needs JavaScript.